Mexico City Airport, Mexico

12:08 PM CDT on September 23, 2017 (GMT -0500)
Lic Benito Juarez International

Weather History for MMMX - November, 2012

Change the Weather History Date:

Tuesday, November 27, 2012

  Actual Average Record
Temperature  
Mean Temperature 58 °F -  
Max Temperature 73 °F 68 °F 78 °F (2004)
Min Temperature 44 °F 40 °F 37 °F (2014)
Degree Days  
Heating Degree Days 6    
Growing Degree Days 8 (Base 50)    
Moisture  
Dew Point 35 °F    
Average Humidity 46    
Maximum Humidity 72    
Minimum Humidity 19    
Precipitation  
Precipitation 0.00 in - - ()
Sea Level Pressure  
Sea Level Pressure 30.32 in    
Wind  
Wind Speed 3 mph ()    
Max Wind Speed 20 mph    
Max Gust Speed 31 mph    
Visibility 7.8 miles    
Events      
Averages and records for this station are not official NWS values.
T = Trace of Precipitation, MM = Missing Value Source: Averaged Metar Reports

Daily Weather History Graph

Daily Weather History Graph

Search for Another Location

Airport or City:

Trip Planner

Search our weather history database for the weather conditions in past years. The results will help you decide how hot, cold, wet, or windy it might be!

Date:

Astronomy

Nov. 27, 2012 Rise Set
Actual Time 6:51 AM CST 5:56 PM CST
Civil Twilight 6:28 AM CST 6:20 PM CST
Nautical Twilight 6:01 AM CST 6:47 PM CST
Astronomical Twilight 5:34 AM CST 7:13 PM CST
Moon 5:27 PM CST (11/27) 6:01 AM CST (11/27)
Length of Visible Light 11h 51m
Length of Day
11h 04m
Waxing Gibbous, 99% of the Moon is Illuminated
Nov 27
Waxing Gibbous
Nov 28
Full
Dec 6
Last Quarter
Dec 13
New
Dec 19
First Quarter

Hourly Weather History & Observations

Time (CST) Temp. Windchill Dew Point Humidity Pressure Visibility Wind Dir Wind Speed Gust Speed Precip Events Conditions
12:55 AM 57.2 °F - 30.2 °F 36% 30.39 in 12.0 mi ENE 2.3 mph - N/A   Mostly Cloudy
1:06 AM 53.6 °F - 28.4 °F 38% 30.39 in 12.0 mi Calm Calm - N/A   Scattered Clouds
1:55 AM 51.8 °F - 30.2 °F 44% 30.39 in 10.0 mi Calm Calm - N/A   Partly Cloudy
2:53 AM 50.0 °F - 32.0 °F 50% 29.93 in 10.0 mi Calm Calm - N/A   Clear
3:44 AM 48.2 °F - 33.8 °F 58% 30.36 in 10.0 mi East 2.3 mph - N/A   Clear
4:48 AM 46.4 °F - 35.6 °F 66% 30.35 in 10.0 mi Calm Calm - N/A   Clear
5:46 AM 46.4 °F 45.2 °F 35.6 °F 66% 29.93 in 10.0 mi NNE 3.5 mph - N/A   Clear
6:26 AM 44.6 °F 42.2 °F 33.8 °F 66% 30.38 in 8.0 mi ENE 4.6 mph - N/A   Scattered Clouds
6:53 AM 46.4 °F - 33.8 °F 62% 30.39 in 8.0 mi Calm Calm - N/A   Scattered Clouds
7:33 AM 46.4 °F - 33.8 °F 62% 30.41 in 8.0 mi Calm Calm - N/A   Partly Cloudy
7:49 AM 44.6 °F 42.2 °F 33.8 °F 66% 30.41 in 6.0 mi ENE 4.6 mph - N/A   Partly Cloudy
8:06 AM 48.2 °F - 33.8 °F 58% 30.42 in 6.0 mi Calm Calm - N/A   Clear
8:24 AM 51.8 °F - 33.8 °F 50% 30.42 in 6.0 mi Calm Calm - N/A   Clear
8:27 AM 51.8 °F - 33.8 °F 50% 30.42 in 6.0 mi Calm Calm - N/A   Clear
8:43 AM 53.6 °F - 33.8 °F 47% 30.02 in 6.0 mi ENE 3.5 mph - N/A   Clear
9:10 AM 57.2 °F - 33.8 °F 41% 30.45 in 6.0 mi Calm Calm - N/A   Clear
9:28 AM 59.0 °F - 33.8 °F 39% 30.45 in 6.0 mi Calm Calm - N/A   Clear
9:42 AM 60.8 °F - 33.8 °F 36% 30.45 in 6.0 mi NE 3.5 mph - N/A   Clear
10:45 AM 64.4 °F - 32.0 °F 30% 30.45 in 6.0 mi Calm Calm - N/A   Clear
10:47 AM 64.4 °F - 33.8 °F 32% 30.45 in 6.0 mi Calm Calm - N/A   Clear
11:45 AM 68.0 °F - 30.2 °F 24% 30.43 in 6.0 mi NE 4.6 mph - N/A   Clear
11:48 AM 68.0 °F - 32.0 °F 26% 29.94 in 6.0 mi NNE 5.8 mph - N/A   Clear
12:50 PM 69.8 °F - 30.2 °F 23% 30.40 in 6.0 mi Calm Calm - N/A   Clear
1:46 PM 73.4 °F - 28.4 °F 19% 30.37 in 7.0 mi NNE 3.5 mph - N/A   Clear
1:50 PM 73.4 °F - 30.2 °F 20% 30.36 in 7.0 mi NE 9.2 mph - N/A   Clear
2:41 PM 73.4 °F - 30.2 °F 20% 29.87 in 6.0 mi Calm Calm - N/A   Scattered Clouds
3:45 PM 71.6 °F - 30.2 °F 22% 30.32 in 6.0 mi NNE 5.8 mph - N/A   Mostly Cloudy
4:44 PM 69.8 °F - 39.2 °F 33% 30.34 in 6.0 mi North 13.8 mph - N/A   Mostly Cloudy
5:22 PM 66.2 °F - 41.0 °F 40% 30.37 in 7.0 mi North 19.6 mph 31.1 mph N/A   Mostly Cloudy
5:50 PM 64.4 °F - 41.0 °F 42% 30.01 in 7.0 mi NNE 12.7 mph 25.3 mph N/A   Mostly Cloudy
6:32 PM 60.8 °F - 42.8 °F 52% 30.43 in 8.0 mi NE 11.5 mph 23.0 mph N/A   Mostly Cloudy
6:44 PM 60.8 °F - 42.8 °F 52% 30.44 in 8.0 mi NNE 12.7 mph 24.2 mph N/A   Mostly Cloudy
7:29 PM 57.2 °F - 42.8 °F 59% 30.47 in 10.0 mi North 13.8 mph - N/A   Partly Cloudy
7:45 PM 57.2 °F - 42.8 °F 59% 30.47 in 10.0 mi NNE 15.0 mph 26.5 mph N/A   Partly Cloudy
8:42 PM 55.4 °F - 42.8 °F 63% 30.12 in 10.0 mi NNE 12.7 mph 25.3 mph N/A   Clear
9:48 PM 55.4 °F - 42.8 °F 63% 30.50 in 10.0 mi NNW 4.6 mph 16.1 mph N/A   Clear
10:49 PM 53.6 °F - 42.8 °F 67% 30.50 in 10.0 mi Calm Calm - N/A   Scattered Clouds
11:52 PM 53.6 °F - 44.6 °F 72% 30.07 in 10.0 mi WNW 5.8 mph - N/A   Scattered Clouds